Weather History for KREO - March, 2014

Change the Weather History Date:

Monday, March 24, 2014

  Actual Average Record
Temperature  
Mean Temperature 46 °F 41 °F  
Max Temperature 70 °F 55 °F 74 °F (1956)
Min Temperature 22 °F 27 °F 10 °F (2013)
Degree Days  
Heating Degree Days 19 24  
Month to date heating degree days 528 620  
Since 1 July heating degree days 4950 5354  
Cooling Degree Days 0 0  
Month to date cooling degree days 0 0  
Year to date cooling degree days 0 0  
Moisture  
Dew Point 9 °F    
Average Humidity 31    
Maximum Humidity 52    
Minimum Humidity 9    
Precipitation  
Precipitation 0.00 in 0.03 in 0.44 in (1950)
Month to date precipitation 0.17 0.73  
Year to date precipitation 0.92 2.14  
Sea Level Pressure  
Sea Level Pressure 30.14 in    
Wind  
Wind Speed 8 mph (South)    
Max Wind Speed 16 mph    
Max Gust Speed 20 mph    
T = Trace of Precipitation, MM = Missing Value Source: NWS Daily Summary

Daily Weather History Graph

Daily Weather History Graph

Search for Another Location

Airport or City:

Trip Planner

Search our weather history database for the weather conditions in past years. The results will help you decide how hot, cold, wet, or windy it might be!

Date:

Astronomy

Mar. 24, 2014 Rise Set
Actual Time 6:47 AM PDT 7:08 PM PDT
Civil Twilight 6:19 AM PDT 7:36 PM PDT
Nautical Twilight 5:46 AM PDT 8:09 PM PDT
Astronomical Twilight 5:12 AM PDT 8:44 PM PDT
Moon 2:28 AM PDT (3/24) 12:31 PM PDT (3/24)
Length of Visible Light 13h 17m
Length of Day
12h 20m
Last Quarter, 42% of the Moon is Illuminated
Mar 24
Last Quarter
Mar 30
New
Apr 7
First Quarter
Apr 15
Full
Apr 22
Last Quarter

Hourly Weather History & Observations

Time (PDT) Temp. Windchill Dew Point Humidity Pressure Visibility Wind Dir Wind Speed Gust Speed Precip Events Conditions
12:52 AM 33.1 °F 25.5 °F 8.1 °F 35% 30.21 in - SE 9.2 mph - N/A   Unknown
1:52 AM 28.9 °F 21.1 °F 8.1 °F 41% 30.23 in - SSW 8.1 mph - N/A   Unknown
2:52 AM 28.0 °F - 7.0 °F 41% 30.23 in - Calm Calm - N/A   Unknown
3:52 AM 27.0 °F 21.6 °F 7.0 °F 43% 30.22 in - ESE 4.6 mph - N/A   Unknown
4:52 AM 26.1 °F 21.9 °F 8.1 °F 47% 30.22 in - SE 3.5 mph - N/A   Unknown
5:52 AM 28.0 °F 20.8 °F 9.0 °F 45% 30.23 in - SE 6.9 mph - N/A   Unknown
6:52 AM 21.9 °F 13.4 °F 7.0 °F 53% 30.26 in - South 6.9 mph - N/A   Unknown
7:52 AM 32.0 °F 28.7 °F 10.0 °F 40% 30.25 in - SSW 3.5 mph - N/A   Unknown
8:52 AM 41.0 °F 39.0 °F 10.9 °F 29% 30.25 in - NNW 3.5 mph - N/A   Unknown
9:52 AM 46.9 °F - 12.0 °F 24% 30.24 in - Calm Calm - N/A   Unknown
10:52 AM 54.0 °F - 12.0 °F 19% 30.23 in - West 3.5 mph - N/A   Unknown
11:52 AM 59.0 °F - 12.0 °F 16% 30.20 in - NW 3.5 mph - N/A   Unknown
12:52 PM 64.0 °F - 10.9 °F 13% 30.17 in - WSW 9.2 mph - N/A   Unknown
1:52 PM 66.9 °F - 10.0 °F 11% 30.14 in - SW 11.5 mph 20.7 mph N/A   Unknown
2:52 PM 69.1 °F - 9.0 °F 10% 30.11 in - North - - N/A   Unknown
3:52 PM 69.1 °F - 9.0 °F 10% 30.08 in - WSW 11.5 mph 18.4 mph N/A   Unknown
4:52 PM 69.1 °F - 9.0 °F 10% 30.06 in - SSW 8.1 mph - N/A   Unknown
5:52 PM 68.0 °F - 7.0 °F 9% 30.04 in - South 10.4 mph 17.3 mph N/A   Unknown
6:52 PM 62.1 °F - 7.0 °F 11% 30.05 in - SSE 10.4 mph - N/A   Unknown
7:52 PM 54.0 °F - 7.0 °F 15% 30.04 in - SE 12.7 mph - N/A   Unknown
8:52 PM 52.0 °F - 8.1 °F 17% 30.02 in - SE 12.7 mph - N/A   Unknown
9:52 PM 52.0 °F - 9.0 °F 18% 29.99 in - SE 15.0 mph - N/A   Unknown
10:52 PM 50.0 °F - 9.0 °F 19% 29.98 in - SSE 11.5 mph - N/A   Unknown
11:52 PM 46.0 °F 40.2 °F 10.0 °F 23% 29.96 in - SE 12.7 mph - N/A   Unknown